Погода в Мысках

Россия / Кемеровская область (Кузбасс)     53°42′45″N   87°48′20″E
темп.,
°C
ветер,
м/с
пор.,
м/с
влажн.,
%
обл.,
%
осадки,
мм/ч
давл.,
гПа
погр.,
м
21 июня, пн
пн2101:00+7ююв259693 0.3 1014160
04:00+6вюв1197100 0.0 101322
07:00+8вюв3895100 0.0 1012316
10:00+13юв35636 0.0 1010545
13:00+19ю353297 0.0 10082070
16:00+16зюз685793 0.0 1009906
19:00+16сз236534 0.0 1010509
22:00+12сз1182100 0.0 101010
22 июня, вт
вт2201:00+10в1194100 0.0 100810
04:00+11св1185100 0.0 100625
07:00+11ююз1188100 0.1 100725
10:00+11в1297100 0.6 100783
13:00+13юз5995100 2.3 1008774
16:00+17зюз465599 0.7 10101534
19:00+13ююз386874 0.8 1011455
22:00+9ююв258911 0.1 101393
23 июня, ср
ср2301:00+7ю2596100 0.5 1013133
04:00+9ююз41096100 0.3 1013568
07:00+10ююз3796100 0.5 1014657
10:00+9ююз279892 0.8 1014459
13:00+12юз478496 1.7 1015957
16:00+13юз368484 0.9 1014768
19:00+12ююз259287 2.1 1014491
22:00+10ю119066 0.4 101411
24 июня, чт
чт2401:00+7в119587 0.4 101210
04:00+5в2297100 0.0 100924
07:00+8юв1294100 0.0 1008109
10:00+9в2497100 0.6 1007141
13:00+11всв1393100 1.3 1006208
16:00+11з3898100 3.1 1007490
19:00+12зюз127996 5.8 1009354
22:00+8зюз229576 0.1 101125
25 июня, пт
пт2501:00+8ю1195100 0.1 101243
04:00+8ююв2497100 0.2 1012166
07:00+8ю2798100 0.5 1013635
10:00+8ююз389795 0.4 1014658
13:00+9ююз4994100 0.7 1015679
16:00+10зюз269680 0.6 1016473
19:00+11ююз259189 1.3 1016392
22:00+9ю229693 0.4 101747